FW0308 Weather Reports


time (UTC)temp
F
wind
direction
speed
knots
gust
knots
rain 1hr
in
rain 24hr
in
rain mn
in
humidity
%
barometer
mb
20260510033102 47 293 0.0 0.0 0.00 0.00 0.00 93 1012.5
20260510031554 47 252 0.0 0.0 0.00 0.00 0.00 93 1012.4
20260510030052 47 195 0.0 0.0 0.00 0.00 0.00 93 1012.5
20260510024552 47 262 0.0 0.0 0.00 0.00 0.00 93 1012.4
20260510023051 47 232 0.0 0.0 0.00 0.00 0.00 93 1012.5
20260510021552 47 231 0.0 0.0 0.00 0.00 0.00 92 1012.7
20260510020050 47 232 0.0 0.0 0.00 0.00 0.00 92 1012.7
20260510014549 47 232 0.0 0.0 0.00 0.00 0.00 92 1012.4
20260510013052 48 231 0.0 0.0 0.00 0.00 0.00 91 1012.5
20260510011551 48 231 0.0 0.0 0.00 0.00 0.00 91 1012.5
20260510010047 49 235 0.0 0.0 0.00 0.00 0.00 91 1012.2
20260510004551 49 235 0.0 0.0 0.00 0.00 0.00 90 1012.3
20260510003047 50 235 0.0 0.0 0.00 0.00 0.00 89 1012.2
20260510001546 51 235 0.0 0.0 0.00 0.00 0.00 88 1011.9
20260510000051 51 238 0.0 0.0 0.00 0.00 0.00 87 1011.7
20260509234545 52 238 0.0 0.0 0.00 0.00 0.00 86 1011.3
20260509233044 53 238 0.0 0.0 0.00 0.00 0.00 85 1011.4
20260509231545 53 239 0.0 0.0 0.00 0.00 0.00 86 1011.2
20260509230042 53 231 0.0 0.0 0.00 0.00 0.00 87 1011.1
20260509224540 53 231 0.0 0.0 0.00 0.00 0.00 86 1011.3
20260509223039 53 228 0.0 0.0 0.00 0.00 0.00 88 1011.3
20260509221538 53 259 0.0 0.0 0.00 0.00 0.00 88 1011.4
20260509220035 52 236 0.0 0.0 0.00 0.00 0.00 90 1011.7
20260509214542 52 237 0.0 0.0 0.00 0.00 0.00 90 1011.7
20260509213036 52 274 0.0 0.0 0.00 0.00 0.00 90 1011.9
20260509211532 52 241 0.0 0.0 0.00 0.00 0.00 92 1011.9
20260509210033 52 254 0.0 0.0 0.00 0.00 0.00 93 1011.8
20260509204526 50 243 0.0 0.0 0.00 0.00 0.00 93 1011.7
20260509203026 50 243 0.0 0.0 0.00 0.00 0.00 92 1012.0
20260509201523 50 243 0.0 0.0 0.00 0.00 0.00 92 1012.3
20260509200022 50 250 0.0 0.0 0.00 0.00 0.00 92 1012.2
20260509194520 50 244 0.0 0.0 0.00 0.00 0.00 92 1012.4
20260509193026 49 285 0.0 0.0 0.00 0.00 0.00 92 1012.7
20260509191525 49 233 0.0 0.0 0.00 0.00 0.00 92 1012.8
20260509190019 49 292 0.0 0.0 0.00 0.00 0.00 91 1012.9
20260509184531 49 202 0.0 0.0 0.00 0.00 0.00 91 1013.2
20260509183022 50 241 0.0 0.0 0.00 0.00 0.00 91 1013.2
20260509181515 50 285 0.0 0.0 0.00 0.00 0.00 91 1013.3
20260509180017 50 271 0.0 0.0 0.00 0.00 0.00 91 1013.0
20260509174521 50 260 0.0 0.0 0.00 0.00 0.00 91 1013.1
20260509173014 50 256 0.0 1.7 0.00 0.00 0.00 91 1013.0
20260509171513 50 200 0.0 4.3 0.00 0.00 0.00 91 1013.0
20260509170015 50 269 0.0 0.9 0.00 0.00 0.00 91 1013.0
20260509164511 50 282 0.0 2.6 0.00 0.00 0.00 91 1013.0
20260509163012 50 285 0.0 0.0 0.00 0.00 0.00 92 1013.0
20260509161507 50 246 0.0 0.0 0.00 0.00 0.00 92 1013.3
20260509160003 50 330 0.0 0.0 0.00 0.00 0.00 92 1013.2
20260509154600 50 217 0.0 0.0 0.00 0.00 0.00 93 1013.2
20260509153107 50 257 0.0 0.0 0.00 0.00 0.00 93 1013.3
20260509151554 49 228 0.0 0.0 0.00 0.00 0.00 93 1013.4
20260509150050 48 230 0.0 0.0 0.00 0.00 0.00 93 1014.0
20260509144548 48 340 0.0 0.0 0.00 0.00 0.00 93 1014.0
20260509143047 48 107 0.0 0.0 0.00 0.00 0.00 93 1013.7
20260509141542 47 110 0.0 0.0 0.00 0.00 0.00 93 1013.6
20260509140040 47 289 0.0 0.0 0.00 0.00 0.00 93 1013.6
20260509134540 47 288 0.0 0.0 0.00 0.00 0.00 93 1013.6
20260509133039 47 288 0.0 0.0 0.00 0.00 0.00 93 1013.6
20260509131538 47 14 0.0 0.0 0.00 0.00 0.00 93 1013.5
20260509130040 47 282 0.0 0.0 0.00 0.00 0.00 94 1013.7
20260509124541 47 282 0.0 0.0 0.00 0.00 0.00 93 1013.8
20260509123031 47 276 0.0 0.0 0.00 0.00 0.00 93 1014.0
20260509121528 47 278 0.0 0.0 0.00 0.00 0.00 94 1014.0
20260509120027 47 281 0.0 0.0 0.00 0.00 0.00 93 1014.0
20260509114526 47 172 0.0 0.0 0.00 0.00 0.00 94 1014.0
20260509113027 46 141 0.0 0.0 0.00 0.00 0.00 93 1014.1
20260509111524 46 141 0.0 0.0 0.00 0.00 0.00 93 1014.0
20260509110023 46 141 0.0 0.0 0.00 0.00 0.00 93 1013.7
20260509104523 46 141 0.0 0.0 0.00 0.00 0.00 93 1013.9
20260509103022 45 141 0.0 0.0 0.00 0.00 0.00 93 1013.9
20260509101525 45 141 0.0 0.0 0.00 0.00 0.00 93 1014.0
20260509100025 45 141 0.0 0.0 0.00 0.00 0.00 93 1013.8
20260509094519 45 141 0.0 0.0 0.00 0.00 0.00 93 1013.8
20260509093019 45 141 0.0 0.0 0.00 0.00 0.00 93 1014.2
20260509091516 45 141 0.0 0.0 0.00 0.00 0.00 93 1014.2
20260509090029 45 141 0.0 0.0 0.00 0.00 0.00 93 1014.5
20260509084516 45 141 0.0 0.0 0.00 0.00 0.00 93 1014.7
20260509083029 45 141 0.0 0.0 0.00 0.00 0.00 93 1014.7
20260509081514 45 141 0.0 0.0 0.00 0.00 0.00 92 1014.5
20260509080014 45 141 0.0 0.0 0.00 0.00 0.00 92 1014.7
20260509074512 45 301 0.0 0.0 0.00 0.00 0.00 92 1014.9
20260509073022 46 301 0.0 0.0 0.00 0.00 0.00 92 1014.6
20260509071511 46 301 0.0 0.0 0.00 0.00 0.00 92 1014.3
20260509070008 46 300 0.0 0.0 0.00 0.00 0.00 92 1014.5
20260509064506 46 300 0.0 0.0 0.00 0.00 0.00 91 1014.8
20260509063013 46 300 0.0 0.0 0.00 0.00 0.00 91 1015.4
20260509061504 46 300 0.0 0.0 0.00 0.00 0.00 91 1015.7
20260509060004 46 304 0.0 0.0 0.00 0.03 0.00 90 1015.4
20260509054502 46 115 0.0 0.0 0.00 0.03 0.00 90 1015.0
20260509053000 46 207 0.0 0.0 0.00 0.03 0.00 89 1015.1
20260509051559 46 206 0.0 0.0 0.00 0.03 0.00 89 1015.2
20260509050058 46 206 0.0 0.0 0.00 0.03 0.00 88 1015.0
20260509044655 46 206 0.0 0.0 0.00 0.05 0.00 87 1014.9
20260509043138 46 207 0.0 0.0 0.00 0.05 0.00 87 1015.1
20260509041554 45 207 0.0 0.0 0.00 0.05 0.00 87 1015.2
20260509040052 45 206 0.0 0.0 0.00 0.05 0.00 87 1015.3
20260509034552 45 206 0.0 0.0 0.00 0.05 0.05 87 1015.3